AirNav   Bose ProFlight Aviation Headset
 
 907 users online  

T67 Hicks Airfield
Fort Worth, Texas, USA

GOING TO FORT WORTH?


FAA INFORMATION EFFECTIVE 16 AUGUST 2018

Location

FAA Identifier: T67
Lat/Long: 32-55-52.4520N / 097-24-42.0690W
32-55.874200N / 097-24.701150W
32.9312367 / -97.4116858
(estimated)
Elevation: 855 ft. / 261 m (estimated)
Variation: 07E (1986)
From city: 14 miles NW of FORT WORTH, TX
Time zone: UTC -5 (UTC -6 during Standard Time)
Zip code: 76052

Airport Operations

Airport use: Open to the public
Activation date: 04/1986
Control tower: no
ARTCC: FORT WORTH CENTER
FSS: FORT WORTH FLIGHT SERVICE STATION
NOTAMs facility: FTW (NOTAM-D service available)
Attendance: UNATNDD
Pattern altitude: 1500 ft. MSL
Wind indicator: yes
Segmented circle: no
Lights: SS-SR
Beacon: white-green (lighted land airport)
Operates sunset to sunrise.

Airport Communications

CTAF/UNICOM: 123.05
CLEARANCE DELIVERY: 125.9
WX ASOS at AFW (6 nm NE): PHONE 817-491-6188
WX ASOS at FTW (7 nm S): PHONE 817-740-3346
WX ASOS at DFW (19 nm E): PHONE 972-615-2608
WX ASOS at DTO (19 nm NE): 119.325 (940-383-8457)

Nearby radio navigation aids

VOR radial/distance  VOR name  Freq  Var
FUZr276/12.0RANGER VORTAC115.7006E
TTTr275/19.1MAVERICK VOR/DME113.1006E
CVEr269/25.7COWBOY VOR/DME116.2006E
MQPr058/32.0MILLSAP VORTAC117.7009E

 
NDB name  Hdg/Dist  Freq  Var  ID
MUFIN312/3.036508EFT ..-. -

Airport Services

Fuel available: 100LL
FUEL AVBL 24 HRS WITH CREDIT CARD.
Parking: tiedowns
Airframe service: MAJOR
Powerplant service: MAJOR

Runway Information

Runway 14/32

Dimensions: 3740 x 60 ft. / 1140 x 18 m
Surface: asphalt, in good condition
Runway edge lights: medium intensity
RUNWAY 14  RUNWAY 32
Traffic pattern: leftleft
Displaced threshold: 340 ft.191 ft.
Markings: basic, in good conditionbasic, in good condition
Visual slope indicator: 2-light PAPI on left (3.00 degrees glide path)2-light PAPI on left (3.00 degrees glide path)
Obstructions: 27 ft. rr, 201 ft. from runway, 30 ft. right of centerline
+20' RR 60' R AT THR.
5 ft. fence, marked, 201 ft. from runway, 25 ft. left of centerline
15 FT ENTRANCE ROAD 50 FT FM THLD; 20 FT RR 122 FT L AT THLD.

Airport Ownership and Management from official FAA records

Ownership: Privately-owned
Owner: HICKS AIRFIELD PILOTS ASSN
100 AVIATOR DR.
FORT WORTH, TX 76179
Manager: MICHAEL REDDICK
593 AVIATOR DR.
FORT WORTH, TX 76179
Phone 817-992-2411

Airport Operational Statistics

Aircraft based on the field: 328
Single engine airplanes: 300
Multi engine airplanes: 22
Helicopters: 4
Ultralights: 2
    
Aircraft operations: avg 296/day *
90% local general aviation
10% transient general aviation
* for 12-month period ending 29 June 2016

Additional Remarks

RY 14/32 RR PARALLEL & ADJ TO RY ON SW SIDE WITHIN PRIMARY SFC.
ULTRALIGHT OPNS INVOF ARPT.
CALM WIND RY 14.
UNCONTROLLED VEHICLE TRAFFIC INVOF HANGARS & ON TWYS.
FOR CD CTC REGIONAL APCH AT 972-615-2799.

Instrument Procedures

There are no published instrument procedures at T67.

Some nearby airports with instrument procedures:

4T2 - Kenneth Copeland Airport (5 nm NW)
KAFW - Fort Worth Alliance Airport (6 nm NE)
KFTW - Fort Worth Meacham International Airport (7 nm S)
KNFW - Fort Worth Naval Air Station JRB (Carswell Field) Airport (10 nm S)
KWEA - Parker County Airport (18 nm SW)
KDFW - Dallas-Fort Worth International Airport (19 nm E)
KDTO - Denton Enterprise Airport (19 nm NE)
 
Loc | Ops | Rwys | IFR | FBO | Links
Com | Nav | Svcs | Stats | Notes


 
Area around T67 (Hicks Airfield)
 
Road maps at: MapQuest Bing Google
 
Aerial photo
WARNING: Photo may not be current or correct
Aerial photo of T67 (Hicks Airfield)
Photo taken 17-Jul-2007

Do you have a better or more recent aerial photo of Hicks Airfield that you would like to share? If so, please send us your photo.

 
Sectional chart

 
Airport distance calculator
Flying to Hicks Airfield? Find the distance to fly.

From to T67

Sunrise and sunset
Times for 18-Aug-2018
 Local
(UTC-5)
 Zulu
(UTC)
Morning civil twilight06:3011:30
Sunrise06:5611:56
Sunset20:1101:11
Evening civil twilight20:3701:37

Current date and time
Zulu (UTC)  19-Aug-2018 00:45:19
Local (UTC-5)  18-Aug-2018 19:45:19
 
METAR
KAFW 
5nm NE 
182353Z 04007KT 10SM TS BKN060CB BKN200 OVC250 31/21 A2989 RMK AO2 LTG DSNT ALQDS SLP105 OCNL LTGCGIC N-NE TS N-NE MOV E T03110206 10389 20311 53010
KFTW 
6nm S 
190007Z 29011KT 10SM VCTS FEW095 31/21 A2988 RMK AO2 LTG DSNT ALQDS T03110211
KNFW 
10nm S 
190015Z AUTO 33013KT 10SM -TSRA OVC100 28/21 A2989 RMK AO2 RAB11 TSB09 P0000 T02830211 $
KDTO 
19nm NE 
190000Z 03030G44KT 4SM TSRA FEW012 BKN075 BKN100 26/18 A2988 RMK AO2 PK WND 02041/2358 WSHFT 2340 LTG DSNT ALQDS P0001 T02560183
KDFW 
20nm E 
190031Z 06019G24KT 6SM -TSRA FEW019 BKN075CB BKN110 OVC250 26/22 A2987 RMK AO2 PK WND 05026/0026 WSHFT 0011 LTG DSNT ALQDS FRQ LTGICCG ALQDS TS ALQDS MOV E T02560217 PNO $
TAF
KAFW 
5nm NE 
182058Z 1821/1918 35005KT P6SM VCTS SCT070CB BKN250 TEMPO 1822/1901 3SM -TSRA BKN035CB FM190200 09006KT P6SM SCT070 BKN150 FM190700 17009KT P6SM VCSH BKN090 OVC250 FM191400 19010KT P6SM SCT090 BKN250
KFTW 
6nm S 
182058Z 1821/1918 35005KT P6SM VCTS SCT070CB BKN250 TEMPO 1822/1901 3SM -TSRA BKN035CB FM190200 09006KT P6SM SCT070 BKN150 FM190700 17009KT P6SM VCSH BKN090 OVC250 FM191400 19010KT P6SM SCT090 BKN250
KNFW 
10nm S 
1823/1923 29005KT 9999 VCTS BKN025CB BKN250 QNH2981INS TEMPO 1823/1905 VRB15G25KT 4800 TSRA BKN030CB FM190600 18007KT 9999 SCT250 QNH2981INS BECMG 1916/1918 20010KT 9999 VCTS SCT025CB BKN250 QNH2977INS TEMPO 1918/1922 VRB20G30KT 4800 TSRA BKN025CB T39/1922Z T27/1911Z FN00182
KDFW 
20nm E 
182058Z 1821/1924 34005KT P6SM VCTS SCT070CB BKN250 TEMPO 1823/1901 3SM -TSRA BKN035CB FM190300 09006KT P6SM SCT070 BKN150 FM190700 17009KT P6SM VCSH BKN090 OVC250 FM191400 19011KT P6SM SCT090 BKN250 FM192200 18010KT P6SM VCTS SCT070CB
NOTAMs
Click for the latest NOTAMs
NOTAMs are issued by the DoD/FAA and will open in a separate window not controlled by AirNav.

 

 
 

FBO, Fuel Providers, and Aircraft Ground Support

  
 Business Name 
 
 Contact 
 
 Services / Description 
 
Fuel Prices
 
Comments
  
Rio Concho Aviation 817-233-1058
[email]
Aviation fuel, Aircraft parking (ramp or tiedown), Passenger terminal and lounge, Aircraft charters, Catering, Pilot supplies, Public telephone, Restrooms, Restaurant

More info about Rio Concho Aviation
Avfuel
100LL
SS $4.54 
 Updated 30-Jul-2018
 
   1 read write
SS=Self service
Update Fuel Prices
 

Would you like to see your business listed on this page?

 If your business provides an interesting product or service to pilots, flight crews, aircraft, or users of the Hicks Airfield, you should consider listing it here.  To start the listing process, click on the button below
 
Add a business
 

Other Pages about Hicks Airfield

www.t67.org
 
Update a link
 
Copyright © AirNav, LLC. All rights reserved. Privacy Policy  Contact